Location: Copeville
(33.0796°N, 96.4155°W)
Time: 07:14:19
(UTC+00:00)

Cosmos 1328 Rocket - Pass Details

Date: 08 July 2022
Orbit: 600 x 627 km, 82.5° (Epoch: 14 August)

Event Time Altitude Azimuth Distance (km) Brightness Sun altitude
Rises 08:04:55 0° 357° (N) 2,891 7.9 -30.1°
Reaches altitude 10° 08:07:11 10° 0° (N) 1,978 6.9 -29.9°
Enters shadow 08:10:06 40° 17° (NNE) 910 4.8 -29.6°
